Home > Weather > Everett > Past weeks

Flag for USA Past Weather in Everett, Washington, USA — Yesterday and Last 2 Weeks

Now
74 °F

Sunny.


Feels Like: 77 °F
Forecast: 56 / 79 °F
Wind: 7 mph from North

Location: Snohomish County Airport

Current Time: Jul 27, 2016 at 2:17:18 PM

Latest Report: Jul 27, 2016 at 12:53 PM


Visibility: 10 mi

Pressure: 30.13 "Hg

Humidity: 52%

Dew Point: 55 °F

Location of EverettLocation

Past Weather in Everett — Graph

°F

Everett Temperature Yesterday

Maximum temperature yesterday: 73 °F (at 4:53 PM)
Minimum temperature yesterday: 56 °F (at 4:53 AM)
Average temperature yesterday: 63 °F

High & Low Weather Summary for the Past Weeks

 TemperatureHumidityPressure
High78 °F (Jul 21, 4:53 PM)93% (Jul 17, 5:59 AM)30.29 "Hg (Jul 17, 5:59 AM)
Low54 °F (Jul 15, 3:53 AM)41% (Jul 15, 3:53 PM)29.91 "Hg (Jul 17, 6:53 PM)
Average63 °F72%30.12 "Hg
* Reported Jul 12 12:53 PM — Jul 27 12:53 PM, Everett, Weather by CustomWeather, © 2016

Note: Actual official high and low records may vary slightly from our data, if they occured in-between our weather recording intervals... More about our weather records

Advertising

Everett Weather History for the Previous 24 Hours

Scroll right to see more
 ConditionsComfort  
Time TempWeatherWind HumidityBarometerVisibility
12:53 PM
Wed, Jul 27
74 °FSunny.7 mph52%30.13 "Hg10 mi
11:53 AM71 °FSunny.5 mph59%30.14 "Hg10 mi
10:53 AM67 °FSunny.6 mph66%30.15 "Hg10 mi
9:53 AM65 °FSunny.6 mph70%30.16 "Hg10 mi
8:53 AM63 °FSunny.6 mph75%30.15 "Hg10 mi
7:53 AM57 °FScattered clouds.No wind93%30.15 "Hg10 mi
6:53 AM56 °FPartly sunny.3 mph93%30.14 "Hg10 mi
5:53 AM55 °FFog.No wind93%30.13 "Hg0 mi
4:59 AM55 °FFog.3 mph93%30.13 "Hg2 mi
4:53 AM55 °FFog.3 mph93%30.12 "Hg1 mi
3:53 AM56 °FClear.No wind90%30.11 "Hg10 mi
2:53 AM56 °FClear.3 mph90%30.11 "Hg10 mi
1:53 AM57 °FClear.5 mph90%30.11 "Hg10 mi
12:53 AM57 °FClear.6 mph90%30.11 "Hg10 mi
11:53 PM
Tue, Jul 26
57 °FClear.8 mph90%30.12 "Hg10 mi
10:53 PM59 °FClear.5 mph84%30.13 "Hg10 mi
9:53 PM60 °FClear.6 mph80%30.12 "Hg10 mi
8:53 PM64 °FSunny.3 mph73%30.11 "Hg10 mi
7:53 PM69 °FSunny.5 mph63%30.11 "Hg10 mi
6:53 PM71 °FSunny.6 mph57%30.11 "Hg10 mi
5:53 PM73 °FSunny.3 mph55%30.11 "Hg10 mi
4:53 PM73 °FSunny.7 mph55%30.12 "Hg10 mi
3:53 PM72 °FSunny.5 mph57%30.13 "Hg10 mi
2:53 PM70 °FSunny.8 mph61%30.14 "Hg10 mi
Weather by CustomWeather, © 2016

See weather overviewHow to use our weather pages